Theta_e
318 317 317 318 322 320 326 327 326 329 329 338 346 348 348 351 351 350 351 351 347 347 347 342 336 333 335 335 335 335 334 334 340 344 345 341 338 336 338 338 336 334 331 330 318 322 327 331 331
315 316 318 314 322 325 328 324 328 329 327 323 340 348 349 353 354 353 352 351 349 347 346 341 335 333 334 335 335 334 333 331 330 332 335 336 336 336 337 335 334 332 332 322 320 325 332 332 332
313 317 315 316 316 326 329 325 327 323 321 324 341 344 348 353 354 351 350 348 347 347 346 340 334 332 333 334 334 333 332 330 329 330 332 334 335 336 336 333 333 334 328 319 321 328 331 332 333
313 312 311 317 320 320 323 323 321 320 319 326 340 351 348 349 353 351 351 349 347 347 346 339 334 332 332 334 333 332 331 329 329 330 331 333 334 333 333 335 334 331 323 318 323 328 330 331 331
312 309 313 317 318 320 320 320 319 319 319 327 343 351 350 352 350 352 349 350 346 347 346 340 334 333 332 333 334 333 330 328 328 330 329 330 331 335 336 335 332 325 320 318 323 327 331 332 332
309 308 314 317 318 319 319 318 318 317 316 343 350 350 348 353 353 354 350 349 345 346 346 342 335 333 332 333 334 334 333 328 327 329 331 332 333 333 333 333 329 323 319 317 321 325 327 328 330
310 309 313 315 317 317 319 315 316 317 316 328 344 349 346 352 353 354 353 349 346 346 346 343 336 334 333 333 334 335 335 334 330 329 329 329 330 331 331 329 326 322 320 317 319 322 326 328 328
308 309 313 313 315 317 317 316 315 316 318 325 337 343 347 348 352 351 351 350 348 347 346 343 337 334 335 335 334 335 335 336 336 334 332 331 330 329 328 328 327 324 321 319 317 318 321 325 326
308 309 311 314 314 316 315 315 315 315 317 323 324 330 332 351 350 349 350 351 350 348 347 344 340 336 335 336 336 336 336 336 336 337 337 336 334 332 331 329 327 325 323 322 322 318 317 318 319
310 309 311 312 313 315 313 315 315 316 318 320 324 321 348 350 349 348 350 350 350 350 348 345 343 341 338 337 337 337 338 338 337 337 337 338 339 337 335 332 333 332 330 329 326 327 325 318 317
308 310 312 313 313 315 315 313 315 316 318 318 319 318 327 344 348 348 349 349 348 348 348 347 345 345 344 342 340 340 340 341 341 340 339 338 338 340 340 338 335 330 327 327 324 325 323 324 320
310 309 312 313 314 313 314 314 314 316 316 317 317 316 316 328 338 344 348 350 348 346 347 347 347 346 346 346 345 345 344 345 348 344 343 341 339 339 340 342 342 339 335 331 329 323 323 321 322
309 311 311 311 311 311 311 311 313 314 314 313 313 315 314 314 318 333 349 350 350 350 346 344 345 346 346 347 346 346 346 346 347 346 345 345 344 342 340 341 342 343 342 340 336 332 326 323 322
310 311 311 310 310 310 311 312 311 313 314 314 313 313 314 312 312 314 319 332 347 351 350 349 344 343 345 346 346 346 347 345 345 344 344 344 345 345 344 343 343 343 343 343 343 341 338 333 327
310 312 310 310 311 311 309 311 311 313 314 314 313 311 311 311 312 312 316 318 321 333 344 350 350 347 344 345 346 345 345 343 343 342 341 342 343 345 346 345 345 344 344 344 344 344 343 341 337
312 311 313 313 311 312 312 312 314 313 313 313 312 311 311 311 311 314 314 316 320 321 323 332 348 350 348 346 345 345 344 342 341 341 340 342 343 343 344 344 345 344 344 343 343 343 343 342 341
311 313 312 314 312 313 312 312 313 313 311 311 311 311 311 310 311 313 315 315 316 320 323 331 337 346 349 348 346 344 343 343 342 344 344 344 344 344 343 344 344 343 344 343 342 342 341 340 340
314 313 313 314 315 312 313 312 312 312 313 312 311 311 311 311 311 314 315 315 316 321 327 335 336 344 346 347 345 343 343 345 346 349 350 348 347 345 344 344 344 343 343 343 343 342 341 340 339
313 313 314 313 313 314 313 312 312 311 312 309 309 309 310 310 311 313 314 315 319 329 336 338 342 344 346 344 342 343 344 344 339 348 350 346 344 346 345 346 345 344 342 343 343 342 341 341 340
313 314 313 313 313 312 313 313 312 312 312 312 311 310 310 312 310 311 315 321 325 333 336 341 344 345 346 344 343 343 340 340 339 332 329 325 325 324 325 326 327 332 341 343 343 342 340 340 340
313 313 313 314 314 313 313 313 314 313 312 312 312 310 311 312 311 310 312 319 327 336 339 344 346 347 346 345 344 338 332 328 323 322 322 324 323 324 324 325 326 329 333 336 338 342 342 340 339
314 313 315 315 314 315 313 313 312 313 312 312 312 310 311 311 310 310 311 317 325 334 341 344 346 345 343 342 338 331 322 320 320 320 321 323 326 327 328 328 329 330 331 332 334 338 341 341 338
314 314 314 315 313 312 312 312 310 312 315 313 312 312 315 314 312 311 310 314 320 329 337 336 335 333 331 327 323 320 319 319 320 320 321 325 325 326 325 325 327 328 330 331 332 334 337 337 338
313 313 310 308 308 313 311 312 311 311 313 314 316 316 317 314 314 314 312 315 320 324 329 329 327 326 324 321 320 320 319 319 320 320 320 322 324 324 323 323 322 323 325 327 329 331 332 335 336
311 310 312 314 312 314 311 312 311 312 314 317 318 317 314 312 313 313 315 316 320 323 326 325 325 322 321 322 320 319 319 318 318 318 319 321 322 323 322 322 321 320 319 319 321 324 327 329 331
312 311 312 316 315 314 314 316 315 317 319 317 315 314 313 311 310 312 315 318 321 323 324 325 321 321 323 321 319 319 319 318 318 318 318 319 320 320 321 321 319 317 314 313 314 315 318 321 326
314 312 310 312 316 317 315 316 315 320 320 319 317 316 314 312 311 309 309 315 321 323 323 322 320 320 319 319 319 318 318 319 319 319 319 320 320 321 319 319 317 316 312 310 310 310 312 314 317
317 314 319 315 322 323 318 320 318 323 320 319 318 316 315 314 312 312 311 313 316 317 318 318 318 318 318 318 318 317 317 318 318 319 319 320 319 320 319 319 317 316 313 310 309 309 309 308 309
319 319 317 316 316 319 320 319 316 320 318 316 315 315 314 315 314 312 311 312 314 315 316 316 317 316 316 316 316 317 317 318 318 319 319 319 319 318 318 318 317 316 314 311 310 309 309 309 309
317 321 318 321 322 315 315 317 315 316 316 315 314 314 313 311 313 312 311 311 311 311 311 310 310 311 313 314 314 316 316 317 317 317 318 319 317 317 318 319 319 318 315 313 311 311 310 310 311
Wind_Speed
14 15 7 3 4 5 3 5 2 5 8 1 4 2 6 4 2 3 2 15 26 35 30 28 28 27 27 26 24 24 24 25 26 27 25 24 23 23 23 20 19 16 14 12 13 14 14 14 14
12 9 2 2 4 3 5 4 3 1 5 11 4 1 4 1 3 4 12 13 25 35 32 29 28 27 27 26 24 23 21 21 23 24 24 24 24 23 21 19 17 15 13 12 14 15 14 12 12
6 3 3 4 3 6 5 4 2 5 12 5 3 5 2 1 3 10 7 21 33 35 32 29 28 27 26 25 24 22 21 21 21 22 23 23 22 21 19 17 15 13 11 12 14 14 14 13 12
2 5 4 4 5 5 6 4 3 8 7 4 3 6 2 2 8 7 22 25 38 35 33 31 29 28 26 24 23 21 21 21 21 22 22 22 21 20 18 16 14 12 12 12 13 14 13 12 12
4 3 3 1 4 4 3 5 5 4 5 4 4 6 2 2 8 15 27 27 38 34 32 31 30 28 27 25 23 22 21 21 21 22 22 22 21 18 17 15 13 12 12 13 14 14 14 13 12
3 3 3 3 4 3 2 4 2 2 5 4 1 6 6 4 13 21 27 31 34 35 31 29 28 28 27 26 24 22 21 20 21 21 21 21 20 19 17 15 14 13 13 14 14 15 15 14 12
5 4 4 3 3 1 2 3 3 2 6 4 5 2 2 4 9 21 23 31 33 33 31 29 28 27 25 24 23 22 20 19 19 19 19 19 19 18 16 14 13 13 13 13 14 14 14 13 12
4 4 3 5 3 4 2 2 2 1 5 3 3 4 5 4 14 19 19 25 29 31 31 31 29 29 28 25 23 22 21 20 19 18 17 17 16 16 15 14 13 13 13 12 12 12 11 11 11
3 3 4 5 6 4 1 5 6 3 3 3 4 1 3 22 21 19 17 17 23 28 31 31 30 29 28 26 25 23 22 21 20 19 17 16 15 14 14 14 13 13 13 13 12 12 12 12 12
5 4 9 7 5 2 5 2 5 5 5 5 2 7 13 24 21 17 16 16 22 27 32 32 31 31 29 27 26 25 23 23 23 22 21 19 18 16 15 14 14 13 14 14 13 12 13 14 14
5 5 6 4 5 2 3 7 3 6 2 2 4 5 5 6 10 10 15 21 30 27 29 34 33 31 30 29 27 26 24 23 23 23 22 22 21 19 18 17 16 15 15 16 15 14 17 17 16
4 8 4 5 3 5 3 1 5 4 5 2 3 2 5 8 7 7 9 16 22 25 29 32 33 32 32 31 29 29 28 26 21 25 24 24 23 22 21 20 19 18 18 16 18 17 18 19 20
5 3 6 11 8 5 5 6 6 5 10 8 6 4 7 5 9 19 26 24 23 23 27 30 32 34 34 33 33 30 29 26 24 21 24 26 26 26 24 23 22 22 20 20 20 20 21 22 22
7 8 10 5 7 4 6 8 7 6 8 7 5 7 6 8 9 7 13 21 25 29 30 31 33 36 35 35 35 33 31 27 24 22 23 24 27 26 26 25 25 25 24 24 23 23 23 26 25
3 3 6 6 5 6 7 7 7 12 7 8 8 8 8 9 8 15 19 16 19 21 26 31 35 36 36 36 36 33 31 27 23 22 20 19 21 24 25 25 26 27 27 26 27 26 26 26 26
6 2 3 3 9 5 10 6 4 10 7 9 9 9 8 9 11 21 18 18 21 19 22 24 29 33 35 36 36 32 27 25 23 21 20 18 19 20 22 24 27 26 26 25 27 27 27 29 31
4 3 5 5 9 4 5 4 6 3 6 8 10 10 9 9 8 18 22 22 24 23 21 20 25 29 32 34 32 28 22 22 19 18 17 18 20 21 20 23 23 23 24 24 24 28 25 28 33
6 5 4 5 1 3 2 6 7 5 4 8 9 9 8 9 12 21 18 18 20 20 22 22 22 22 24 27 25 22 20 18 13 12 13 13 15 17 20 21 23 24 27 27 27 28 27 28 29
5 3 2 2 3 3 3 4 11 8 3 8 9 8 9 10 10 11 11 16 16 19 23 24 25 24 26 28 28 25 26 17 9 8 5 3 3 5 9 13 18 22 25 27 28 30 29 29 28
2 2 3 6 5 4 6 7 7 7 5 5 5 8 10 5 8 3 8 15 21 27 27 28 29 28 30 31 28 18 20 11 11 11 9 5 5 3 3 5 7 10 15 19 24 26 23 23 23
3 4 3 5 4 3 4 6 4 5 5 5 4 4 5 6 9 7 4 11 16 25 30 32 31 30 33 32 25 14 16 17 15 11 8 5 4 3 1 2 4 6 10 15 18 20 23 19 17
3 8 9 5 3 3 3 5 4 4 7 6 7 4 7 7 8 6 7 11 23 29 30 30 29 27 24 22 21 18 14 12 7 7 4 3 4 3 3 1 3 5 7 9 12 14 19 21 18
7 5 6 5 3 4 1 1 7 2 3 5 7 7 6 7 7 10 10 21 30 31 31 27 25 22 20 18 14 14 13 10 8 5 3 4 2 2 3 3 3 5 7 7 8 10 13 17 20
4 5 7 4 3 3 5 6 4 4 4 2 4 6 7 9 8 7 7 13 15 20 25 24 24 23 20 18 16 13 12 13 11 7 3 2 3 3 2 3 6 6 6 7 8 7 9 12 16
5 6 2 2 1 5 1 2 7 3 4 3 7 8 8 8 8 4 2 6 11 19 23 22 20 17 17 17 17 16 14 13 9 6 7 9 9 8 7 5 5 7 8 8 9 8 9 11 14
6 8 5 6 4 4 1 5 4 2 5 2 2 2 5 8 7 5 4 9 17 22 21 21 20 19 21 20 18 17 17 14 11 12 11 13 13 12 11 10 8 7 6 7 8 8 8 9 11
4 4 6 7 3 3 3 5 6 2 3 5 6 7 7 7 7 7 7 7 16 25 27 27 23 20 20 20 19 19 18 18 18 18 18 17 17 17 15 14 13 12 10 8 8 9 8 8 9
4 7 3 2 5 4 3 3 5 1 5 5 7 7 6 5 7 6 5 5 2 4 13 16 19 20 20 20 21 21 22 21 20 20 21 22 21 21 20 20 19 18 16 13 11 9 8 9 10
3 2 6 5 4 5 2 5 4 6 6 6 6 7 7 8 8 5 2 3 4 9 11 14 15 18 22 21 21 22 23 22 22 23 25 26 26 26 27 27 26 24 22 19 18 15 13 12 11
2 3 3 4 4 2 4 6 2 7 4 4 7 7 6 7 5 7 6 8 6 3 6 9 12 15 16 19 20 23 24 24 24 24 26 28 29 30 32 33 33 30 28 26 24 22 19 18 16
Wind_Direction
321 330 331 62 61 65 274 265 254 344 346 1 265 259 142 128 170 218 345 154 164 161 167 165 165 163 161 154 150 147 147 148 153 157 160 160 158 157 156 156 156 156 156 156 152 147 144 139 133
330 334 63 82 101 99 262 266 229 251 272 297 237 66 67 115 111 114 125 171 171 163 167 167 166 164 163 156 152 152 151 152 155 160 163 162 160 160 160 161 162 161 160 159 153 151 149 145 142
324 354 91 106 121 171 218 227 260 266 271 228 293 49 60 38 70 169 173 166 171 166 168 168 168 165 165 159 157 157 156 156 157 158 160 161 162 163 164 166 167 167 165 161 158 158 157 157 156
322 14 37 109 200 242 213 269 246 326 314 139 162 95 52 171 158 190 165 168 170 168 169 169 171 168 167 164 161 161 161 161 161 161 161 162 165 167 168 171 173 175 173 168 166 167 168 171 174
41 59 76 143 235 254 226 263 293 318 274 281 336 158 154 30 170 164 166 169 173 170 172 172 173 171 171 171 169 169 169 169 168 167 166 167 169 172 175 177 181 183 179 176 176 178 179 183 186
41 96 87 222 240 249 258 259 262 255 287 297 69 154 160 173 163 166 172 174 177 173 175 176 177 176 176 176 176 177 176 176 176 175 176 177 180 182 185 187 190 191 189 186 186 187 189 191 195
120 93 208 200 251 313 234 284 242 294 267 263 148 121 316 179 177 164 168 174 177 177 177 179 180 181 182 182 183 184 183 183 183 183 185 188 189 192 196 199 202 202 201 200 198 199 200 201 204
112 100 181 228 201 253 238 344 330 181 269 286 114 204 222 190 155 157 164 173 179 181 182 183 184 186 188 188 190 191 192 192 192 193 194 197 200 203 205 208 211 216 217 217 220 219 220 222 224
110 83 201 226 162 225 113 24 316 272 287 43 9 243 270 143 148 143 148 171 184 187 188 189 189 191 194 195 195 197 199 201 202 203 203 205 211 216 219 223 226 228 231 235 238 235 235 237 239
170 174 216 205 193 178 327 86 307 333 7 34 25 41 113 139 150 150 162 175 192 196 195 196 195 195 197 200 202 203 204 206 208 210 212 212 215 218 223 231 241 244 249 252 252 262 260 244 245
194 209 203 231 222 131 104 322 266 298 58 115 89 95 91 117 161 178 184 189 198 202 200 202 202 202 201 204 204 207 209 214 216 218 220 222 223 223 227 233 238 247 249 256 254 262 268 271 262
216 194 212 298 188 201 224 270 308 219 270 312 172 110 133 163 189 206 211 204 203 205 207 208 207 207 207 209 211 212 212 213 217 222 224 227 229 231 235 239 243 247 252 257 264 262 263 266 269
211 219 198 235 244 270 328 252 228 256 281 294 292 200 166 188 199 209 218 216 213 212 213 216 214 214 213 211 215 217 217 216 218 221 226 228 232 237 240 244 250 256 257 259 259 263 268 269 271
211 200 242 252 250 213 194 266 127 274 263 264 238 265 250 191 200 226 198 207 212 219 220 220 219 219 217 216 218 217 218 221 223 227 231 232 235 240 245 248 253 259 261 267 269 273 273 273 272
177 211 253 224 233 231 166 297 197 234 239 246 227 225 241 249 244 206 209 204 208 214 224 221 222 222 221 220 222 221 222 227 230 234 242 245 244 244 252 258 262 264 267 268 268 269 271 272 274
158 129 191 243 164 236 151 253 260 236 211 242 251 256 239 239 231 240 218 221 204 216 227 227 227 225 222 222 224 222 227 232 238 244 251 255 260 260 262 265 266 271 275 275 272 271 272 273 272
11 181 197 278 202 135 162 212 248 242 192 254 257 245 236 251 242 242 242 219 214 209 214 222 224 226 221 219 222 220 224 230 238 246 255 258 262 262 269 272 274 278 274 272 274 275 273 277 277
177 189 220 211 147 169 159 245 277 275 202 258 263 240 236 245 251 253 252 224 217 212 208 213 213 220 217 216 214 213 218 222 226 240 248 258 265 265 263 268 270 271 272 273 269 269 273 274 277
157 178 198 243 283 1 238 257 278 293 316 280 266 249 229 229 255 271 255 222 213 204 198 204 205 205 202 196 197 203 209 204 222 223 216 245 288 300 289 283 281 273 266 268 271 272 268 266 266
110 195 257 283 262 164 288 281 276 285 248 244 271 267 259 288 308 320 199 194 201 197 197 201 205 201 198 200 197 194 195 179 153 130 124 99 79 53 10 337 323 304 284 279 273 266 256 263 257
177 171 235 232 358 287 330 312 293 302 298 333 307 265 260 266 284 280 222 238 213 206 201 202 203 201 199 199 195 164 136 137 136 135 124 107 108 111 66 343 314 308 295 284 284 277 266 245 244
251 205 215 224 114 215 101 279 294 261 298 303 301 322 302 310 301 288 238 218 213 218 207 202 201 201 200 195 183 158 151 144 141 131 122 109 116 112 100 48 344 321 315 308 295 284 275 261 244
221 156 182 187 163 129 273 31 270 304 255 271 301 296 294 272 257 263 247 225 218 212 205 198 181 172 166 160 158 145 136 136 146 166 174 112 65 4 1 4 343 309 298 306 303 295 272 265 253
132 105 47 57 92 237 212 177 268 209 214 306 291 294 300 307 308 302 271 236 206 198 187 177 168 158 157 156 157 163 165 171 175 184 183 195 207 218 238 290 304 299 295 297 304 298 287 270 257
81 67 14 357 354 225 348 165 239 274 275 258 290 300 318 319 314 316 120 117 139 158 166 160 160 157 164 169 176 183 189 190 200 203 200 208 219 231 241 245 251 282 290 289 291 294 288 288 278
180 152 156 196 200 240 11 238 242 199 350 34 53 353 30 3 339 317 186 133 136 151 156 160 171 178 184 191 195 200 208 213 217 209 217 225 232 244 244 247 254 265 269 288 297 296 300 302 294
173 154 184 106 15 81 241 292 321 47 58 52 38 45 38 40 29 16 10 33 149 162 175 183 187 192 201 206 210 219 223 219 220 220 221 228 230 231 234 241 245 244 247 263 275 292 304 305 300
141 154 93 3 142 217 277 280 232 80 65 22 30 27 37 40 39 35 34 30 350 196 189 196 205 213 220 228 233 240 242 238 239 232 231 232 240 238 239 241 240 240 238 240 240 253 265 283 296
31 89 57 110 127 171 175 258 222 154 79 15 358 333 341 8 2 344 31 359 262 248 252 249 244 248 250 254 263 268 262 258 257 252 249 247 249 248 246 248 244 243 241 241 237 238 243 250 266
67 124 121 138 195 140 143 263 291 144 110 35 355 353 331 324 359 1 15 20 11 2 298 290 293 288 293 291 287 279 278 277 272 264 261 260 262 260 253 251 246 244 244 243 239 240 241 243 246